WS Maaseik 1 Meer informatie WS Maaseik 1


WS Maaseik 2 Meer informatie WS Maaseik 2


Regen radar Meer informatie rain snow radar


Bezoek onze andere website:

Vorige versie
weerstation Maaseik


Bezoek ook eens deze sites:

Weerstation Geleen



We konden geen weer-waarchuwingen ophalen. Ga rechtstreeks naar de Meteoalarm site : www.meteoalarm.eu en controleer daar .

15 daagse weersverwachting Angers (FR)

  • Overzicht
  • Per uur
  • 15 dagen
  • Extra
  • Vergelijk
  • Kaarten
  • Dagkaart
  • Meer »
  • Info
  • Statistieken
  • Directe link
    Temp 6h Neerslag Wind  
 06:59     21:15    Daglengte: 14:16 Vandaag
20:00
23°
0.2 mm
5
 07:00     21:14    Daglengte: 14:14 Morgen
02:00
18°
1.7 mm
5
08:00
18°
0.6 mm
4
14:00
26°
 
5
20:00
24°
 
5
 07:01     21:12    Daglengte: 14:11 Dinsdag 16 Aug
02:00
19°
 
3
08:00
19°
 
3
14:00
23°
0.5 mm
5
20:00
23°
4.7 mm
3
 07:03     21:10    Daglengte: 14:07 Woensdag 17 Aug
02:00
17°
 
2
08:00
17°
 
3
Locatie info
Region: Pays de la Loire
Latitude: 47.4707°N
Longitude: -0.5533°E
50 masl
Postcode: 49100
Temp/Neerslag /Baro Onweer/Dauwpunt
    Temp Baro 1h Neerslag Dauwpunt Wind UV Bewolking  
 06:59     21:15    Daglengte: 14:16 Vandaag
15:00
25°
1007.2 hPa
48%
15.6°
4
Windvlaag: 3.6 m/s
75%
16:00
25°
1007.0 hPa
82%
15.2°
5
Windvlaag: 4.7 m/s
41%
17:00
24°
1006.7 hPa
82%
15.7°
5
Windvlaag: 4.3 m/s
68%
18:00
24°
1006.6 hPa 0.2 mm
82%
14.6°
5
Windvlaag: 4.1 m/s
56%
19:00
24°
1006.4 hPa
42%
14.6°
5
Windvlaag: 5 m/s
30%
20:00
23°
1006.4 hPa
67%
14.7°
5
Windvlaag: 5.2 m/s
49%
21:00
21°
1006.7 hPa
14%
15.1°
5
Windvlaag: 5.1 m/s
45%
22:00
20°
1007.1 hPa
14%
15.5°
4
Windvlaag: 6 m/s
40%
23:00
20°
1007.0 hPa
18%
16.2°
4
Windvlaag: 6.7 m/s
44%
 07:00     21:14    Daglengte: 14:14 Morgen
00:00
19°
1006.9 hPa
33%
16.5°
4
Windvlaag: 6.5 m/s
63%
01:00
19°
1006.4 hPa
73%
16.6°
4
Windvlaag: 6.9 m/s
68%
02:00
18°
1006.0 hPa 1.7 mm
82%
16.5°
5
Windvlaag: 7.7 m/s
84%
03:00
18°
1005.7 hPa 0.3 mm
82%
16.6°
5
Windvlaag: 7.5 m/s
84%
04:00
18°
1005.5 hPa 0.4 mm
81%
16.5°
5
Windvlaag: 5.1 m/s
79%
05:00
18°
1005.5 hPa
81%
16.6°
4
Windvlaag: 4.7 m/s
65%
06:00
18°
1005.1 hPa
74%
16.7°
4
Windvlaag: 4.3 m/s
61%
07:00
18°
1005.2 hPa
27%
16.5°
4
Windvlaag: 3.9 m/s
68%
08:00
18°
1005.5 hPa
15%
16.4°
4
Windvlaag: 3.5 m/s
60%
09:00
19°
1005.7 hPa
14%
16.1°
4
Windvlaag: 3.5 m/s
60%
10:00
20°
1005.9 hPa
14%
15.5°
5
Windvlaag: 3.8 m/s
23%
11:00
22°
1006.1 hPa
14%
14.9°
5
Windvlaag: 3.1 m/s
53%
12:00
24°
1006.2 hPa
14%
14.8°
5
Windvlaag: 2.9 m/s
64%
13:00
24°
1006.1 hPa
14%
14.1°
5
Windvlaag: 3.1 m/s
49%
14:00
26°
1005.9 hPa
14%
14.2°
5
Windvlaag: 4 m/s
34%
15:00
27°
1005.9 hPa
17%
14.3°
5
Windvlaag: 4.3 m/s
21%
16:00
27°
1005.3 hPa
37%
14.0°
5
Windvlaag: 4 m/s
49%
17:00
27°
1005.1 hPa
82%
15.4°
5
Windvlaag: 3.8 m/s
72%
18:00
26°
1005.3 hPa
80%
12.5°
5
Windvlaag: 4.2 m/s
68%
19:00
25°
1005.4 hPa
31%
12.6°
5
Windvlaag: 5.1 m/s
45%
20:00
24°
1005.6 hPa
14%
13.5°
5
Windvlaag: 5.6 m/s
74%
21:00
23°
1005.9 hPa
14%
13.7°
5
Windvlaag: 5 m/s
46%
22:00
22°
1006.5 hPa
17%
13.8°
4
Windvlaag: 5.2 m/s
70%
23:00
21°
1006.9 hPa
14%
14.0°
4
Windvlaag: 5 m/s
56%
 07:01     21:12    Daglengte: 14:11 Dinsdag 16 Aug
00:00
20°
1007.0 hPa
14%
14.0°
4
Windvlaag: 5.3 m/s
61%
01:00
20°
1007.1 hPa
14%
14.3°
3
Windvlaag: 4.4 m/s
46%
02:00
19°
1006.9 hPa
14%
14.7°
3
Windvlaag: 3.4 m/s
47%
03:00
19°
1006.7 hPa
14%
15.2°
3
Windvlaag: 2.8 m/s
52%
04:00
19°
1006.5 hPa
14%
15.7°
2
Windvlaag: 3.6 m/s
56%
05:00
19°
1006.4 hPa
16%
15.8°
2
Windvlaag: 4.4 m/s
61%
06:00
19°
1006.2 hPa
15%
15.4°
3
Windvlaag: 4.7 m/s
78%
07:00
19°
1006.3 hPa
78%
15.2°
3
Windvlaag: 5.2 m/s
72%
08:00
19°
1006.4 hPa
81%
15.2°
3
Windvlaag: 4.5 m/s
85%
09:00
19°
1006.7 hPa
82%
15.1°
3
Windvlaag: 5.5 m/s
85%
10:00
20°
1006.7 hPa
82%
16.1°
5
Windvlaag: 8.1 m/s
86%
11:00
20°
1007.2 hPa 0.5 mm
100%
11.6°
4
Windvlaag: 8.4 m/s
99%
12:00
21°
1007.2 hPa
83%
12.6°
5
Windvlaag: 7.6 m/s
87%
13:00
22°
1007.3 hPa
98%
9.5°
5
Windvlaag: 8.8 m/s
65%
14:00
23°
1007.1 hPa
94%
8.3°
5
Windvlaag: 8.8 m/s
55%
15:00
25°
1006.9 hPa
33%
8.0°
5
Windvlaag: 9 m/s
52%
16:00
25°
1006.6 hPa
79%
11.7°
4
Windvlaag: 8.6 m/s
56%
17:00
26°
1006.1 hPa
88%
13.1°
4
Windvlaag: 7.4 m/s
51%
18:00
24°
1006.2 hPa 1.6 mm
100%
10.1°
4
Windvlaag: 8.3 m/s
87%
19:00
24°
1006.2 hPa 3.1 mm
100%
8.7°
3
Windvlaag: 5.9 m/s
60%
20:00
23°
1006.1 hPa
98%
9.2°
3
Windvlaag: 3.7 m/s
35%
21:00
22°
1006.4 hPa
24%
11.3°
3
Windvlaag: 3.7 m/s
15%
22:00
20°
1006.9 hPa
74%
12.2°
3
Windvlaag: 2.8 m/s
21%
23:00
19°
1007.4 hPa
21%
13.3°
2
Windvlaag: 3 m/s
19%
 07:03     21:10    Daglengte: 14:07 Woensdag 17 Aug
00:00
18°
1007.7 hPa
21%
14.9°
2
Windvlaag: 2.8 m/s
17%
01:00
18°
1007.6 hPa
22%
15.2°
2
Windvlaag: 2.2 m/s
24%
02:00
17°
1007.4 hPa
21%
15.5°
2
Windvlaag: 3.6 m/s
22%
03:00
17°
1007.1 hPa
21%
15.3°
3
Windvlaag: 4.1 m/s
60%
04:00
17°
1006.9 hPa
21%
15.5°
3
Windvlaag: 4 m/s
70%
05:00
17°
1006.6 hPa
21%
15.5°
2
Windvlaag: 3.9 m/s
84%
06:00
16°
1006.3 hPa
23%
15.6°
2
Windvlaag: 1.7 m/s
77%
07:00
16°
1006.6 hPa
26%
15.8°
2
Windvlaag: 2 m/s
87%
08:00
17°
1006.9 hPa
39%
16.3°
3
Windvlaag: 1.8 m/s
97%
09:00
18°
1007.0 hPa 1.2 mm
99%
15.8°
3
Windvlaag: 1.7 m/s
99% warningclass
10:00
18°
1007.1 hPa 1.4 mm
100%
15.3°
3
Windvlaag: 2.5 m/s
100% warningclass
11:00
20°
1007.3 hPa 1.5 mm
100%
14.3°
4
Windvlaag: 2.5 m/s
99% warningclass
12:00
21°
1007.2 hPa
100%
12.8°
4
Windvlaag: 2 m/s
96%
13:00
22°
1007.2 hPa
100%
11.4°
4
Windvlaag: 2.3 m/s
96%
14:00
22°
1007.1 hPa 1.4 mm
100%
10.6°
4
Windvlaag: 2.4 m/s
92%
Temp/Neerslag /Baro Onweer/Dauwpunt
    Temp Baro Neerslag Dauwpunt Wind Bewolking  
 06:59     21:15    Daglengte: 14:16 Vandaag
17:00
24°
1006.7 hPa   15.7°
5
68%
20:00
23°
1006.4 hPa 0.2 mm 14.7°
5
49%
23:00
20°
1007.0 hPa   16.2°
4
44%
 07:00     21:14    Daglengte: 14:14 Morgen
02:00
18°
1006.0 hPa 1.7 mm 16.5°
5
84%
05:00
18°
1005.5 hPa 0.6 mm 16.6°
4
65%
08:00
18°
1005.5 hPa   16.4°
4
60%
11:00
22°
1006.1 hPa   14.9°
5
53%
14:00
26°
1005.9 hPa   14.2°
5
34%
17:00
27°
1005.1 hPa   15.4°
5
72%
20:00
24°
1005.6 hPa   13.5°
5
74%
23:00
21°
1006.9 hPa   14.0°
4
56%
 07:01     21:12    Daglengte: 14:11 Dinsdag 16 Aug
02:00
19°
1006.9 hPa   14.7°
3
47%
05:00
19°
1006.4 hPa   15.8°
2
61%
08:00
19°
1006.4 hPa   15.2°
3
85%
11:00
20°
1007.2 hPa 0.5 mm 11.6°
4
99%
14:00
23°
1007.1 hPa   8.3°
5
55%
17:00
26°
1006.1 hPa   13.1°
4
51%
20:00
23°
1006.1 hPa 4.7 mm 9.2°
3
35%
23:00
19°
1007.4 hPa   13.3°
2
19%
 07:03     21:10    Daglengte: 14:07 Woensdag 17 Aug
02:00
17°
1007.4 hPa   15.5°
2
22%
05:00
17°
1006.6 hPa   15.5°
2
84%
08:00
17°
1006.9 hPa   16.3°
3
97%
11:00
20°
1007.3 hPa 4.1 mm 14.3°
4
99% warningclass
14:00
22°
1007.1 hPa 3.9 mm 10.6°
4
92%
17:00
22°
1009.5 hPa 18.4 mm 14.1°
4
1%
20:00
20°
1010.1 hPa 19.0 mm 14.8°
4
1%
23:00
17°
1011.5 hPa 19.2 mm 15.0°
3
1%
 07:04     21:08    Daglengte: 14:04 Donderdag 18 Aug
02:00
15°
1012.0 hPa 19.3 mm 14.0°
2
1%
05:00
14°
1012.7 hPa 19.3 mm 13.5°
3
1%
08:00
15°
1013.8 hPa 19.4 mm 13.8°
3
1%
11:00
20°
1015.3 hPa 19.4 mm 14.4°
5
0%
14:00
24°
1015.2 hPa 19.6 mm 14.0°
4
0%
17:00
23°
1015.5 hPa 19.9 mm 15.2°
7
1%
20:00
22°
1016.6 hPa 20.3 mm 14.1°
6
1%
23:00
17°
1018.9 hPa 20.3 mm 13.6°
4
1%
 07:05     21:07    Daglengte: 14:02 Vrijdag 19 Aug
02:00
15°
1019.9 hPa 20.3 mm 11.8°
3
1%
05:00
13°
1020.0 hPa 20.3 mm 10.7°
2
1%
08:00
14°
1020.8 hPa 20.3 mm 9.7°
2
1%
11:00
21°
1021.1 hPa 20.3 mm 10.3°
3
1%
14:00
26°
1020.0 hPa 20.3 mm 13.2°
4
0%
17:00
26°
1019.1 hPa 20.3 mm 15.3°
7
1%
20:00
23°
1019.3 hPa 20.7 mm 17.1°
4
1%
23:00
19°
1020.4 hPa 21.9 mm 17.5°
3
1%
 07:07     21:05    Daglengte: 13:58 Zaterdag 20 Aug
02:00
18°
1020.3 hPa 24.1 mm 17.3°
3
1%
05:00
17°
1020.6 hPa 24.3 mm 16.8°
3
1%
08:00
17°
1021.5 hPa 24.3 mm 16.7°
2
1%
11:00
19°
1022.6 hPa 24.3 mm 17.1°
3
1%
14:00
22°
1022.4 hPa 24.4 mm 15.9°
3
1%
20:00
23°
1021.7 hPa 24.4 mm 11.8°
6
0%
23:00
17°
1023.8 hPa 24.4 mm 10.5°
5
1%
 07:08     21:03    Daglengte: 13:55 Zondag 21 Aug
02:00
14°
1024.5 hPa 24.4 mm 12.1°
3
1%
05:00
13°
1024.5 hPa 24.4 mm 12.4°
2
0%
08:00
14°
1025.2 hPa 24.4 mm 12.2°
2
0%
11:00
20°
1025.4 hPa 24.4 mm 8.1°
4
0%
14:00
25°
1024.3 hPa 24.4 mm 8.0°
4
0%
17:00
27°
Voelt als: 26.3°
1022.7 hPa   8.9°
4
0%
20:00
24°
1022.2 hPa 48.8 mm 10.2°
5
0%
 07:09     21:01    Daglengte: 13:52 Maandag 22 Aug
02:00
15°
1023.4 hPa 48.8 mm 12.6°
3
1%
08:00
15°
1022.8 hPa 48.8 mm 12.3°
1
1%
14:00
25°
1021.0 hPa 48.8 mm 10.3°
3
1%
20:00
25°
1018.7 hPa 48.8 mm 11.7°
2
1%
 07:11     20:59    Daglengte: 13:48 Dinsdag 23 Aug
02:00
17°
1019.3 hPa 48.8 mm 13.0°
3
1%
08:00
16°
1019.0 hPa 48.8 mm 12.7°
2
1%
14:00
28°
Voelt als: 27.3°
1018.3 hPa 48.8 mm 12.4°
5
1%
20:00
25°
1018.2 hPa 48.8 mm 16.3°
4
1%
 07:12     20:57    Daglengte: 13:45 Woensdag 24 Aug
02:00
17°
1020.5 hPa 48.8 mm 12.9°
3
0%
08:00
15°
1020.9 hPa 48.8 mm 12.0°
3
0%
14:00
29°
Voelt als: 28.0°
1016.3 hPa   11.4°
1
39%
20:00
28°
Voelt als: 27.2°
1015.5 hPa   11.2°
2
43%
 07:13     20:56    Daglengte: 13:43 Donderdag 25 Aug
02:00
18°
1017.3 hPa 0.1 mm 12.2°
2
36%
08:00
16°
1017.7 hPa   11.8°
2
24%
14:00
29°
Voelt als: 28.2°
1017.3 hPa 0.1 mm 11.9°
1
39%
20:00
28°
Voelt als: 27.2°
1016.5 hPa 0.2 mm 11.3°
2
47%
 07:15     20:54    Daglengte: 13:39 Vrijdag 26 Aug
02:00
18°
1018.2 hPa 0.2 mm 11.7°
3
39%
08:00
16°
1018.4 hPa   12.1°
2
34%
14:00
30°
Voelt als: 28.7°
1017.8 hPa 0.1 mm 10.8°
1
38%
20:00
28°
Voelt als: 27.6°
1016.8 hPa   11.0°
3
42%
 07:16     20:52    Daglengte: 13:36 Zaterdag 27 Aug
02:00
18°
1018.8 hPa 0.2 mm 12.7°
2
31%
08:00
16°
1019.0 hPa   12.8°
1
33%
14:00
29°
Voelt als: 27.9°
1018.3 hPa   11.7°
2
42%
20:00
28°
Voelt als: 26.9°
1017.0 hPa 0.1 mm 10.2°
3
42%
 07:17     20:50    Daglengte: 13:33 Zondag 28 Aug
02:00
18°
1018.8 hPa 0.1 mm 11.0°
3
28%
08:00
16°
1018.6 hPa   11.2°
2
34%
14:00
28°
Voelt als: 27.5°
1017.8 hPa 0.2 mm 10.4°
2
43%
20:00
27°
Voelt als: 26.6°
1016.9 hPa 0.3 mm 10.4°
2
43%
 07:19     20:48    Daglengte: 13:29 Maandag 29 Aug
02:00
17°
1018.7 hPa 0.5 mm 11.6°
3
39%
08:00
15°
1018.7 hPa   11.5°
2
39%
14:00
28°
Voelt als: 27.4°
1018.0 hPa   9.9°
3
32%
  CAPE Lifted Index Hail Supercell Tornado SRH 3km CL BTM PRES CL TOP PRES Swiss DWD icon SMHI TS
 06:59     21:15    Daglengte: 14:16 Vandaag
15:00 712 J/kg -3.6 K 0 % 0 % 0 % 0 m²/s² 0 0 -0.78 3
16:00 607 J/kg -3.0 K 0 % 0 % 0 % 0 m²/s² 0 0 1.11 80
17:00 471 J/kg -2.5 K 0 % 0 % 0 % 0 m²/s² 0 0 0.65 3
18:00 178 J/kg -1.3 K 0 % 0 % 0 % 0 m²/s² 0 0 1.28 3
19:00 132 J/kg -1.3 K 0 % 0 % 0 % 0 m²/s² 0 0 1.31 3
20:00 53 J/kg -1.1 K 0 % 0 % 0 % 0 m²/s² 0 0 1.33 2
21:00 34 J/kg -1.1 K 0 % 0 % 0 % 0 m²/s² 0 0 1.66 3
22:00 0 J/kg -0.8 K 0 % 0 % 0 % 0 m²/s² 0 0 2.2 3
23:00 0 J/kg -0.3 K 0 % 0 % 0 % 0 m²/s² 0 0 2.94 3
 07:00     21:14    Daglengte: 14:14 Morgen
00:00 0 J/kg -0.1 K 0 % 0 % 0 % 0 m²/s² 0 0 4.1 3
01:00 0 J/kg -0.1 K 0 % 0 % 0 % 0 m²/s² 0 0 4.01 61
02:00 0 J/kg 0.4 K 0 % 0 % 0 % 0 m²/s² 0 0 3.49 63
03:00 5 J/kg 0.2 K 0 % 0 % 0 % 0 m²/s² 0 0 2.42 3
04:00 4 J/kg 0.5 K 0 % 0 % 0 % 0 m²/s² 0 0 2.21 80
05:00 32 J/kg 0.8 K 0 % 0 % 0 % 0 m²/s² 0 0 2.06 80
06:00 21 J/kg 1.2 K 0 % 0 % 0 % 0 m²/s² 0 0 2.19 3
07:00 16 J/kg 1.6 K 0 % 0 % 0 % 0 m²/s² 0 0 2.77 3
08:00 0 J/kg 1.6 K 0 % 0 % 0 % 0 m²/s² 0 0 2.71 3
09:00 20 J/kg 1.2 K 0 % 0 % 0 % 0 m²/s² 0 0 2.25 3
10:00 22 J/kg 0.7 K 0 % 0 % 0 % 0 m²/s² 0 0 1.72 2
11:00 15 J/kg 0.0 K 0 % 0 % 0 % 0 m²/s² 0 0 1.17 3
12:00 32 J/kg -0.2 K 0 % 0 % 0 % 0 m²/s² 0 0 1.24 3
13:00 60 J/kg -0.5 K 0 % 0 % 0 % 0 m²/s² 0 0 1.81 3
14:00 70 J/kg -0.5 K 0 % 0 % 0 % 0 m²/s² 0 0 1.54 2
15:00 169 J/kg -1.1 K 0 % 0 % 0 % 0 m²/s² 0 0 0.61 2
16:00 209 J/kg -0.9 K 0 % 0 % 0 % 0 m²/s² 0 0 0.6 3
17:00 280 J/kg -1.5 K 0 % 0 % 0 % 0 m²/s² 0 0 -0.39 3
18:00 235 J/kg -1.2 K 0 % 0 % 0 % 0 m²/s² 0 0 -0.09 3
19:00 155 J/kg -0.9 K 0 % 0 % 0 % 0 m²/s² 0 0 -0.06 3
20:00 4 J/kg 0.4 K 0 % 0 % 0 % 0 m²/s² 0 0 1.39 3
21:00 0 J/kg 1.3 K 0 % 0 % 0 % 0 m²/s² 0 0 2.35 3
22:00 0 J/kg 2.4 K 0 % 0 % 0 % 0 m²/s² 0 0 3.93 3
23:00 0 J/kg 2.1 K 0 % 0 % 0 % 0 m²/s² 0 0 4.05 3
 07:01     21:12    Daglengte: 14:11 Dinsdag 16 Aug
00:00 0 J/kg 1.6 K 0 % 0 % 0 % 0 m²/s² 0 0 3.82 3
01:00 59 J/kg 1.0 K 0 % 0 % 0 % 0 m²/s² 0 0 3.28 3
02:00 51 J/kg 1.1 K 0 % 0 % 0 % 0 m²/s² 0 0 2.24 3
03:00 106 J/kg 1.0 K 0 % 0 % 0 % 0 m²/s² 0 0 2.2 3
04:00 108 J/kg 0.6 K 0 % 0 % 0 % 0 m²/s² 0 0 1.8 3
05:00 127 J/kg 0.5 K 0 % 0 % 0 % 0 m²/s² 0 0 1.4 3
06:00 180 J/kg -0.2 K 0 % 0 % 0 % 0 m²/s² 0 0 0.61 3
07:00 220 J/kg -0.7 K 0 % 0 % 0 % 0 m²/s² 0 0 0.05 3
08:00 295 J/kg -1.3 K 0 % 0 % 0 % 0 m²/s² 0 0 -0.91 61
09:00 566 J/kg -2.7 K 0 % 0 % 0 % 0 m²/s² 0 0 -1.89 61
10:00 476 J/kg -2.6 K 0 % 0 % 0 % 0 m²/s² 0 0 -1.34 61
11:00 195 J/kg -1.3 K 0 % 0 % 0 % 0 m²/s² 0 0 -0.7 3
12:00 80 J/kg -1.0 K 0 % 0 % 0 % 0 m²/s² 0 0 -0.07 3
13:00 281 J/kg -1.7 K 0 % 0 % 0 % 0 m²/s² 0 0 -1.04 3
14:00 212 J/kg -1.3 K 0 % 0 % 0 % 0 m²/s² 0 0 0.17 3
15:00 323 J/kg -1.9 K 0 % 0 % 0 % 0 m²/s² 0 0 -0.7 3
16:00 610 J/kg -2.8 K 0 % 0 % 0 % 0 m²/s² 0 0 -1.51 3
17:00 722 J/kg -3.1 K 0 % 0 % 0 % 0 m²/s² 0 0 -1.3 3
18:00 562 J/kg -2.5 K 0 % 0 % 0 % 0 m²/s² 0 0 -0.55 3
19:00 401 J/kg -1.7 K 0 % 0 % 0 % 0 m²/s² 0 0 0.43 2
20:00 341 J/kg -1.6 K 0 % 0 % 0 % 0 m²/s² 0 0 0.2 1
21:00 316 J/kg -1.6 K 0 % 0 % 0 % 0 m²/s² 0 0 -0.31 2
22:00 293 J/kg -1.8 K 0 % 0 % 0 % 0 m²/s² 0 0 -0.45 1
23:00 304 J/kg -2.5 K 0 % 0 % 0 % 0 m²/s² 0 0 -0.43 2
 07:03     21:10    Daglengte: 14:07 Woensdag 17 Aug
00:00 224 J/kg -2.4 K 0 % 0 % 0 % 0 m²/s² 0 0 -0.78 3
01:00 218 J/kg -2.8 K 0 % 0 % 0 % 0 m²/s² 0 0 -1.63 0
02:00 291 J/kg -3.2 K 0 % 0 % 0 % 0 m²/s² 0 0 -2.03 0
03:00 313 J/kg -3.1 K 0 % 0 % 0 % 0 m²/s² 0 0 -1.6 3
04:00 438 J/kg -3.4 K 0 % 0 % 0 % 0 m²/s² 0 0 -2.11 3
05:00 463 J/kg -3.3 K 0 % 0 % 0 % 0 m²/s² 0 0 -2.01 3
06:00 554 J/kg -3.6 K 0 % 0 % 0 % 0 m²/s² 0 0 -2.85 3
07:00 613 J/kg -3.4 K 0 % 0 % 0 % 0 m²/s² 0 0 -2.74 3
08:00 692 J/kg -3.5 K 0 % 0 % 0 % 0 m²/s² 0 0 -2.66 3
09:00 865 J/kg -4.1 K 0 % 0 % 0 % 0 m²/s² 0 0 -3.08 61
10:00 1146 J/kg -4.5 K 0 % 0 % 0 % 0 m²/s² 0 0 -3.57 80
11:00 1180 J/kg -4.6 K 0 % 0 % 0 % 0 m²/s² 0 0 -3.58 80
12:00 948 J/kg -3.8 K 0 % 0 % 0 % 0 m²/s² 0 0 -2.48 3
13:00 783 J/kg -3.1 K 0 % 0 % 0 % 0 m²/s² 0 0 -1.54 3
14:00 788 J/kg -3.2 K 0 % 0 % 0 % 0 m²/s² 0 0 -1.46 3
Temp Baro Wind Neerslag
  EWN Forecast EWN WRFDA DWD ICON FMI HIRLAM MET Norway GFS
 06:59     21:15    Daglengte: 14:16 Vandaag
17:00 24.5° 1006.7 hPa 5.0 m/s 0.0 mm 29.4° 1005.3 hPa 5.9 m/s 1.8 mm 25.2° 1006.9 hPa 4.4 m/s -0.6 mm 24.2° 1006.8 hPa 5.8 m/s 0.0 mm 26.5° 1006.1 hPa 5.3 m/s
20:00 22.7° 1006.4 hPa 5.2 m/s 0.2 mm 25.0° 1005.8 hPa 7.5 m/s 2.2 mm 23.6° 1006.4 hPa 4.3 m/s 0.1 mm 22.5° 1007.0 hPa 6.3 m/s 0.0 mm 25.3° 1005.8 hPa 5.6 m/s
23:00 19.6° 1007.0 hPa 4.4 m/s 0.0 mm 17.1° 1006.9 hPa 3.7 m/s 2.2 mm 20.1° 1006.9 hPa 2.7 m/s 0.0 mm 19.9° 1007.8 hPa 5.0 m/s 0.0 mm 18.2° 1006.7 hPa 3.4 m/s
 07:00     21:14    Daglengte: 14:14 Morgen
02:00 18.3° 1006.0 hPa 4.7 m/s 1.7 mm 15.6° 1006.1 hPa 3.3 m/s 2.2 mm 18.4° 1005.4 hPa 3.1 m/s 3.6 mm 18.8° 1007.1 hPa 5.1 m/s 0.0 mm 18.1° 1006.1 hPa 1.2 m/s
05:00 18.2° 1005.5 hPa 4.5 m/s 0.6 mm 17.1° 1005.5 hPa 2.8 m/s 2.2 mm 18.6° 1005.4 hPa 4.0 m/s 0.7 mm 18.1° 1006.3 hPa 4.5 m/s 0.0 mm 16.9° 1005.7 hPa 2.5 m/s
08:00 18.2° 1005.5 hPa 3.9 m/s 0.0 mm 17.0° 1005.5 hPa 3.4 m/s 2.3 mm 19.1° 1005.1 hPa 3.7 m/s 0.1 mm 18.2° 1006.4 hPa 3.7 m/s 0.0 mm 17.1° 1005.6 hPa 3.7 m/s
11:00 22.0° 1006.1 hPa 4.9 m/s 0.0 mm 21.7° 1005.6 hPa 3.1 m/s 2.3 mm 22.3° 1005.8 hPa 4.9 m/s 0.0 mm 22.9° 1006.6 hPa 5.4 m/s 0.0 mm 23.8° 1005.7 hPa 5.4 m/s
14:00 25.9° 1005.9 hPa 5.0 m/s 0.0 mm 27.1° 1004.5 hPa 2.2 m/s 2.3 mm 26.1° 1005.5 hPa 5.3 m/s 0.0 mm 26.6° 1006.3 hPa 5.2 m/s 0.0 mm 28.6° 1004.9 hPa 6.1 m/s
17:00 26.5° 1005.1 hPa 5.0 m/s 0.0 mm 29.2° 1003.4 hPa 3.2 m/s 2.5 mm 26.9° 1005.2 hPa 4.4 m/s 0.1 mm 26.5° 1005.0 hPa 5.4 m/s 0.0 mm 29.5° 1003.9 hPa 4.9 m/s
20:00 24.0° 1005.6 hPa 4.8 m/s 0.0 mm 23.9° 1004.2 hPa 7.7 m/s 3.4 mm 24.0° 1005.9 hPa 4.2 m/s 0.1 mm 25.3° 1004.5 hPa 5.0 m/s 0.0 mm 24.0° 1004.6 hPa 6.2 m/s
23:00 20.7° 1006.9 hPa 3.7 m/s 0.0 mm 19.3° 1006.0 hPa 4.7 m/s 3.7 mm 20.5° 1006.9 hPa 2.4 m/s 0.0 mm 22.1° 1006.4 hPa 3.9 m/s 0.0 mm 18.5° 1006.6 hPa 3.5 m/s
 07:01     21:12    Daglengte: 14:11 Dinsdag 16 Aug
02:00 19.2° 1006.9 hPa 2.8 m/s 0.0 mm 18.5° 1006.3 hPa 3.9 m/s 3.7 mm 19.1° 1006.9 hPa 1.7 m/s 0.0 mm 20.4° 1005.8 hPa 3.8 m/s 0.0 mm 17.1° 1006.8 hPa 2.7 m/s
05:00 18.5° 1006.4 hPa 2.4 m/s 0.0 mm 17.6° 1005.7 hPa 4.3 m/s 3.7 mm 17.9° 1006.8 hPa 1.5 m/s 0.0 mm 19.1° 1004.4 hPa 3.8 m/s 0.0 mm 17.3° 1006.3 hPa 3.2 m/s
08:00 18.7° 1006.4 hPa 3.0 m/s 0.0 mm 18.1° 1005.6 hPa 3.7 m/s 3.7 mm 18.2° 1006.7 hPa 2.2 m/s 0.1 mm 19.6° 1004.5 hPa 5.2 m/s 0.0 mm 16.8° 1006.7 hPa 4.0 m/s
11:00 20.3° 1007.2 hPa 4.4 m/s 0.5 mm 22.6° 1006.6 hPa 9.1 m/s 3.7 mm 20.2° 1007.1 hPa 3.7 m/s 0.2 mm 19.7° 1007.0 hPa 5.5 m/s
14:00 23.5° 1007.1 hPa 5.2 m/s 0.0 mm 26.5° 1005.7 hPa 6.1 m/s 3.7 mm 22.6° 1007.1 hPa 5.2 m/s 0.1 mm 21.3° 1007.3 hPa 5.7 m/s
17:00 25.6° 1006.1 hPa 4.4 m/s 0.0 mm 25.9° 1005.2 hPa 5.2 m/s 5.1 mm 24.9° 1006.1 hPa 4.5 m/s 0.1 mm 25.3° 1006.1 hPa 7.0 m/s
20:00 22.9° 1006.1 hPa 3.0 m/s 4.7 mm 25.2° 1004.8 hPa 5.3 m/s 7.6 mm 22.8° 1006.2 hPa 3.0 m/s 0.1 mm 21.2° 1006.7 hPa 4.2 m/s
23:00 19.4° 1007.4 hPa 2.5 m/s 0.0 mm 20.3° 1007.3 hPa 2.9 m/s 8.9 mm 19.4° 1006.9 hPa 2.5 m/s 0.0 mm 17.2° 1008.3 hPa 3.4 m/s
 07:03     21:10    Daglengte: 14:07 Woensdag 17 Aug
02:00 17.3° 1007.4 hPa 2.4 m/s 0.0 mm 15.6° 1007.1 hPa 2.3 m/s 9.6 mm 17.6° 1007.2 hPa 2.2 m/s 0.0 mm 15.1° 1008.1 hPa 2.2 m/s
05:00 16.7° 1006.6 hPa 2.2 m/s 0.0 mm 15.2° 1006.4 hPa 0.8 m/s 9.8 mm 17.1° 1006.2 hPa 2.6 m/s 0.0 mm 15.7° 1007.2 hPa 2.1 m/s
08:00 17.0° 1006.9 hPa 3.1 m/s 0.0 mm 15.7° 1006.8 hPa 1.6 m/s 10.0 mm 17.3° 1006.9 hPa 3.4 m/s 0.0 mm 16.0° 1007.6 hPa 2.2 m/s
11:00 19.6° 1007.3 hPa 3.9 m/s 4.1 mm 21.0° 1007.9 hPa 1.7 m/s 10.5 mm 19.3° 1007.1 hPa 4.4 m/s 1.0 mm 17.1° 1008.6 hPa 2.7 m/s
14:00 22.4° 1007.1 hPa 3.8 m/s 3.9 mm 24.8° 1007.4 hPa 2.4 m/s 11.1 mm 21.8° 1007.0 hPa 4.1 m/s 0.3 mm 20.6° 1009.5 hPa 3.5 m/s
17:00 22.1° 1009.5 hPa 4.2 m/s 18.4 mm 22.1° 1009.5 hPa 4.2 m/s 18.4 mm
20:00 20.2° 1010.1 hPa 3.5 m/s 19.0 mm 20.2° 1010.1 hPa 3.5 m/s 19.0 mm
23:00 16.6° 1011.5 hPa 2.7 m/s 19.2 mm 16.6° 1011.5 hPa 2.7 m/s 19.2 mm
 07:04     21:08    Daglengte: 14:04 Donderdag 18 Aug
02:00 15.3° 1012.0 hPa 1.9 m/s 19.3 mm 15.3° 1012.0 hPa 1.9 m/s 19.3 mm
05:00 14.3° 1012.7 hPa 2.8 m/s 19.3 mm 14.3° 1012.7 hPa 2.8 m/s 19.3 mm
08:00 14.6° 1013.8 hPa 3.2 m/s 19.4 mm 14.6° 1013.8 hPa 3.2 m/s 19.4 mm
11:00 20.2° 1015.3 hPa 4.6 m/s 19.4 mm 20.2° 1015.3 hPa 4.6 m/s 19.4 mm
14:00 24.1° 1015.2 hPa 4.4 m/s 19.6 mm 24.1° 1015.2 hPa 4.4 m/s 19.6 mm
17:00 23.0° 1015.5 hPa 6.9 m/s 19.9 mm 23.0° 1015.5 hPa 6.9 m/s 19.9 mm
20:00 22.1° 1016.6 hPa 5.8 m/s 20.3 mm 22.1° 1016.6 hPa 5.8 m/s 20.3 mm
23:00 17.3° 1018.9 hPa 4.4 m/s 20.3 mm 17.3° 1018.9 hPa 4.4 m/s 20.3 mm
 07:05     21:07    Daglengte: 14:02 Vrijdag 19 Aug
02:00 14.5° 1019.9 hPa 2.8 m/s 20.3 mm 14.5° 1019.9 hPa 2.8 m/s 20.3 mm
05:00 13.2° 1020.0 hPa 2.3 m/s 20.3 mm 13.2° 1020.0 hPa 2.3 m/s 20.3 mm
08:00 13.6° 1020.8 hPa 1.8 m/s 20.3 mm 13.6° 1020.8 hPa 1.8 m/s 20.3 mm
11:00 20.8° 1021.1 hPa 2.7 m/s 20.3 mm 20.8° 1021.1 hPa 2.7 m/s 20.3 mm
14:00 25.7° 1020.0 hPa 4.0 m/s 20.3 mm 25.7° 1020.0 hPa 4.0 m/s 20.3 mm
17:00 25.8° 1019.1 hPa 6.7 m/s 20.3 mm 25.8° 1019.1 hPa 6.7 m/s 20.3 mm
20:00 23.2° 1019.3 hPa 3.7 m/s 20.7 mm 23.2° 1019.3 hPa 3.7 m/s 20.7 mm
23:00 18.5° 1020.4 hPa 3.3 m/s 21.9 mm 18.5° 1020.4 hPa 3.3 m/s 21.9 mm
 07:07     21:05    Daglengte: 13:58 Zaterdag 20 Aug
02:00 18.0° 1020.3 hPa 3.4 m/s 24.1 mm 18.0° 1020.3 hPa 3.4 m/s 24.1 mm
05:00 16.9° 1020.6 hPa 2.9 m/s 24.3 mm 16.9° 1020.6 hPa 2.9 m/s 24.3 mm
08:00 17.3° 1021.5 hPa 2.4 m/s 24.3 mm 17.3° 1021.5 hPa 2.4 m/s 24.3 mm
11:00 19.3° 1022.6 hPa 2.9 m/s 24.3 mm 19.3° 1022.6 hPa 2.9 m/s 24.3 mm
14:00 22.0° 1022.4 hPa 3.2 m/s 24.4 mm 22.0° 1022.4 hPa 3.2 m/s 24.4 mm
20:00 23.5° 1021.7 hPa 5.9 m/s 24.4 mm 23.5° 1021.7 hPa 5.9 m/s 24.4 mm
23:00 16.9° 1023.8 hPa 4.6 m/s 24.4 mm 16.9° 1023.8 hPa 4.6 m/s 24.4 mm
 07:08     21:03    Daglengte: 13:55 Zondag 21 Aug
02:00 13.7° 1024.5 hPa 2.8 m/s 24.4 mm 13.7° 1024.5 hPa 2.8 m/s 24.4 mm
05:00 13.2° 1024.5 hPa 1.8 m/s 24.4 mm 13.2° 1024.5 hPa 1.8 m/s 24.4 mm
08:00 13.8° 1025.2 hPa 2.1 m/s 24.4 mm 13.8° 1025.2 hPa 2.1 m/s 24.4 mm
11:00 20.4° 1025.4 hPa 3.6 m/s 24.4 mm 20.4° 1025.4 hPa 3.6 m/s 24.4 mm
14:00 24.6° 1024.3 hPa 3.8 m/s 24.4 mm 24.6° 1024.3 hPa 3.8 m/s 24.4 mm
17:00 26.5° 1022.7 hPa 4.2 m/s 24.4 mm 26.5° 1022.7 hPa 4.2 m/s 24.4 mm
20:00 24.0° 1022.2 hPa 5.4 m/s 24.4 mm 24.0° 1022.2 hPa 5.4 m/s 24.4 mm
 07:09     21:01    Daglengte: 13:52 Maandag 22 Aug
02:00 15.3° 1023.4 hPa 2.8 m/s 24.4 mm 15.3° 1023.4 hPa 2.8 m/s 24.4 mm
08:00 14.8° 1022.8 hPa 0.9 m/s 24.4 mm 14.8° 1022.8 hPa 0.9 m/s 24.4 mm
14:00 24.9° 1021.0 hPa 2.7 m/s 24.4 mm 24.9° 1021.0 hPa 2.7 m/s 24.4 mm
20:00 24.8° 1018.7 hPa 2.1 m/s 24.4 mm 24.8° 1018.7 hPa 2.1 m/s 24.4 mm
 07:11     20:59    Daglengte: 13:48 Dinsdag 23 Aug
02:00 16.6° 1019.3 hPa 2.9 m/s 24.4 mm 16.6° 1019.3 hPa 2.9 m/s 24.4 mm
08:00 15.6° 1019.0 hPa 2.4 m/s 24.4 mm 15.6° 1019.0 hPa 2.4 m/s 24.4 mm
14:00 27.6° 1018.3 hPa 4.6 m/s 24.4 mm 27.6° 1018.3 hPa 4.6 m/s 24.4 mm
20:00 24.7° 1018.2 hPa 3.5 m/s 24.4 mm 24.7° 1018.2 hPa 3.5 m/s 24.4 mm
 07:12     20:57    Daglengte: 13:45 Woensdag 24 Aug
02:00 16.5° 1020.5 hPa 3.1 m/s 24.4 mm 16.5° 1020.5 hPa 3.1 m/s 24.4 mm
08:00 15.1° 1020.9 hPa 2.7 m/s 24.4 mm 15.1° 1020.9 hPa 2.7 m/s 24.4 mm
14:00 28.9° 1016.3 hPa 0.9 m/s 0.0 mm
20:00 27.7° 1015.5 hPa 1.8 m/s 0.0 mm
 07:13     20:56    Daglengte: 13:43 Donderdag 25 Aug
02:00 18.2° 1017.3 hPa 2.1 m/s 0.1 mm
08:00 16.2° 1017.7 hPa 1.6 m/s 0.0 mm
14:00 29.0° 1017.3 hPa 1.4 m/s 0.1 mm
20:00 27.8° 1016.5 hPa 2.3 m/s 0.2 mm
 07:15     20:54    Daglengte: 13:39 Vrijdag 26 Aug
02:00 18.3° 1018.2 hPa 2.6 m/s 0.2 mm
08:00 16.5° 1018.4 hPa 1.7 m/s 0.0 mm
14:00 29.9° 1017.8 hPa 1.3 m/s 0.1 mm
20:00 28.4° 1016.8 hPa 2.7 m/s 0.0 mm
 07:16     20:52    Daglengte: 13:36 Zaterdag 27 Aug
02:00 18.2° 1018.8 hPa 2.1 m/s 0.2 mm
08:00 16.4° 1019.0 hPa 1.5 m/s 0.0 mm
14:00 28.7° 1018.3 hPa 2.0 m/s 0.0 mm
20:00 27.5° 1017.0 hPa 3.0 m/s 0.1 mm
 07:17     20:50    Daglengte: 13:33 Zondag 28 Aug
02:00 18.1° 1018.8 hPa 2.7 m/s 0.1 mm
08:00 16.0° 1018.6 hPa 1.9 m/s 0.0 mm
14:00 28.3° 1017.8 hPa 2.3 m/s 0.2 mm
20:00 26.8° 1016.9 hPa 2.5 m/s 0.3 mm
 07:19     20:48    Daglengte: 13:29 Maandag 29 Aug
02:00 17.5° 1018.7 hPa 2.5 m/s 0.5 mm
08:00 15.3° 1018.7 hPa 2.3 m/s 0.0 mm
14:00 28.3° 1018.0 hPa 2.6 m/s 0.0 mm
FMI Hirlam - 7.5 km EWN WRFDA - 12 km DWD ICON - 7 km GFS - 25 km Basiskaart






























































Updatetijd (Europe/Brussels) Resolutie Lengte Stap
FMI Hirlam 07:15, 13:15, 19:15, 01:15 7.5 km 49h 1h
EWN WRFDA 10:15, 16:15, 22:15, 04:15 12 km 73h 1h
DWD ICON 11:45, 17:45, 23:45, 05:45 7 km 75h 1h
GFS 08:15, 14:15, 20:15, 02:15 25 km 237h 3h
30+ mm
25-30 mm
20-25 mm
15-20 mm
10-15 mm
6-10 mm
4-6 mm
2-4 mm
1-2 mm
0.5-1 mm
0.2-0.5 mm
0.1-0.2 mm
30+ mm
25-30 mm
20-25 mm
15-20 mm
10-15 mm
6-10 mm
4-6 mm
2-4 mm
1-2 mm
0.5-1 mm
0.2-0.5 mm
0.1-0.2 mm
Sneeuwval
Natte sneeuw
Hagel
Vorst
30+ mm
25-30 mm
20-25 mm
15-20 mm
10-15 mm
6-10 mm
4-6 mm
2-4 mm
1-2 mm
0.5-1 mm
0.2-0.5 mm
0.1-0.2 mm
Sneeuwval
Natte sneeuw
Hagel
Vorst
Onweer
50 mm
40 mm
30 mm
26 mm
22 mm
18 mm
14 mm
10 mm
9 mm
8 mm
7 mm
6 mm
5 mm
4.5 mm
4 mm
3.5 mm
3 mm
2.5 mm
2 mm
1.5 mm
1 mm
0.8 mm
0.6 mm
0.4 mm
0.2 mm
0.05 mm
35°
30°
25°
20°
15°
10°
-5°
-10°
-15°
-20°
-25°
-30°
-35°
33> m/s
29 m/s
25 m/s
21 m/s
17 m/s
14 m/s
11 m/s
8 m/s
5 m/s
3 m/s
0 m/s
2600 J/kg
2400 J/kg
2200 J/kg
2000 J/kg
1800 J/kg
1600 J/kg
1400 J/kg
1200 J/kg
1000 J/kg
800 J/kg
600 J/kg
400 J/kg
200 J/kg
70 dBZ
65 dBZ
60 dBZ
55 dBZ
50 dBZ
45 dBZ
40 dBZ
35 dBZ
30 dBZ
25 dBZ
20 dBZ
15 dBZ
10 dBZ
5 dBZ
-1 K
-2 K
-3 K
-4 K
-5 K
-6 K
-7 K
-8 K
-9 K
950 m²/s²
900 m²/s²
850 m²/s²
800 m²/s²
750 m²/s²
700 m²/s²
650 m²/s²
600 m²/s²
550 m²/s²
500 m²/s²
450 m²/s²
400 m²/s²
350 m²/s²
300 m²/s²
250 m²/s²
200 m²/s²
150 m²/s²
100 m²/s²
46 m/s
44 m/s
42 m/s
40 m/s
38 m/s
36 m/s
34 m/s
32 m/s
30 m/s
28 m/s
26 m/s
24 m/s
22 m/s
20 m/s
16 m/s
12 m/s
8 m/s
4 m/s
30 m/s
28 m/s
26 m/s
24 m/s
22 m/s
20 m/s
18 m/s
16 m/s
14 m/s
12 m/s
10 m/s
8 m/s
6 m/s
4 m/s
2 m/s
3.0
2.8
2.6
2.4
2.2
2.0
1.8
1.6
1.4
1.2
1.0
0.8
0.6
0.4
0.2
15
14
13
12
11
10
9
8
7
6
5
4
3
2
1
90%
80%
70%
60%
50%
40%
30%
20%
10%
42
40
38
36
34
32
30
28
26
24
22
20
18
16
14
12
90+ cm
80-90 cm
70-80 cm
60-70 cm
50-60 cm
40-50 cm
30-40 cm
20-30 cm
10-20 cm
1-10 cm
Sneeuwval
Natte sneeuw
Regen
>120 mm
115 mm
110 mm
105 mm
100 mm
95 mm
90 mm
85 mm
80 mm
75 mm
70 mm
65 mm
60 mm
55 mm
50 mm
45 mm
45 mm
40 mm
35 mm
30 mm
25 mm
20 mm
15 mm
10 mm
5 mm
0.1 mm
960 hPa
880 hPa
800 hPa
720 hPa
640 hPa
560 hPa
584 gpdm
568 gpdm
552 gpdm
536 gpdm
520 gpdm
504 gpdm
488 gpdm
Extreem zwaar Noodweer Kans op onweer
15% 15% 5% 50% 15%

Dag




Kaart






35°
30°
25°
20°
15°
10°
-5°
-10°
-15°
-20°
-25°
-30°
-35°
33> m/s
29 m/s
25 m/s
21 m/s
17 m/s
14 m/s
11 m/s
8 m/s
5 m/s
3 m/s
0 m/s
Extreem zwaar Noodweer Kans op onweer
15% 15% 5% 50% 15%
>120 mm
115 mm
110 mm
105 mm
100 mm
95 mm
90 mm
85 mm
80 mm
75 mm